Content
SEND FEEDBACK

Daily
Averages
Monthly
Summary
United States of America

CHICAGO, ILLINOIS


Home > North America > United States > Illinois
Elevation: 674 feet     Latitude: 41 59N     Longitude: 087 54W

WEATHER
 
SELECT A DAY
Number of Records: 194,730;   Date Range: 7/8/95 - 7/7/14
 
SHARE

PRINT THIS DATA

[ ← Previous Day ]
WEATHER ALMANAC - NOVEMBER 1, 2013
[ Next Day → ]
[ °C ]   °F
Weather ElementAverageHighLow
Temperature46.8 °F50 °F (1:52 pm)44.1 °F (3:52 am)
Dewpoint40 °F44.6 °F (8:09 pm)35.6 °F (8:25 am)
Humidity77.5 %93 % (8:09 pm)66 % (8:25 am)
Barometer29.59 in29.75 in (10:52 pm)29.39 in (1:05 am)
Wind Speed9.4 mph17.3 mph (2:52 am)
Wind Gust32.2 mph (2:52 am)
Weather ElementAverage
Visibility8.9 mi
Wind DirectionWSW (263.3 °)

Weather ElementTotal
Precipitation0.08 in
Heating Degree Days18 (Base 65)
Averaged from 30 records on November 1, 2013
WEATHER CONDITIONS BREAKOUT
WIND DIRECTION BREAKOUT
WEATHER BY HOUR - NOVEMBER 1, 2013
[ °C ]   °F
Local TimeTemperatureDewpointHumidityBarometerVisibilityWind DirectionWind SpeedGust SpeedPrecipitationEventsConditions
1:05 AM46.4 °F41.0 °F81 %29.39 in10.0 miWest (260°)15.0 mph20.7 mphOvercast
1:34 AM46.4 °F39.2 °F76 %29.39 in10.0 miWest (270°)13.8 mph27.6 mphOvercast
1:52 AM46.9 °F39.0 °F74 %29.40 in10.0 miWest (260°)16.1 mph26.5 mphOvercast
2:52 AM46.0 °F37.0 °F71 %29.43 in10.0 miWest (260°)17.3 mph32.2 mphOvercast
3:25 AM44.6 °F37.4 °F76 %29.44 in10.0 miWest (260°)13.8 mph23.0 mphScattered Clouds
3:52 AM44.1 °F37.0 °F76 %29.45 in10.0 miWest (260°)12.7 mph19.6 mphPartly Cloudy
4:52 AM44.1 °F37.0 °F76 %29.47 in10.0 miWSW (240°)10.4 mph18.4 mphOvercast
5:52 AM46.0 °F36.0 °F68 %29.50 in10.0 miWSW (240°)6.9 mphOvercast
6:52 AM46.0 °F37.0 °F71 %29.53 in10.0 miWest (260°)10.4 mphOvercast
7:52 AM46.0 °F36.0 °F68 %29.55 in10.0 miWest (260°)12.7 mph17.3 mphOvercast
8:25 AM46.4 °F35.6 °F66 %29.55 in10.0 miWest (260°)10.4 mph16.1 mphOvercast
8:52 AM46.9 °F37.0 °F68 %29.57 in10.0 miWest (260°)8.1 mph19.6 mphOvercast
9:52 AM46.9 °F39.0 °F74 %29.58 in10.0 miWest (260°)10.4 mph19.6 mphOvercast
10:52 AM46.9 °F39.0 °F74 %29.58 in10.0 miWest (260°)12.7 mph18.4 mphOvercast
11:52 AM48.0 °F39.0 °F71 %29.60 in10.0 miWest (260°)12.7 mph19.6 mphOvercast
12:52 PM48.0 °F39.0 °F71 %29.60 in10.0 miWest (260°)8.1 mphOvercast
1:52 PM50.0 °F39.9 °F68 %29.61 in10.0 miWest (270°)11.5 mph21.9 mphOvercast
2:52 PM48.9 °F39.9 °F71 %29.62 in10.0 miWest (280°)10.4 mphOvercast
3:52 PM48.9 °F39.9 °F71 %29.64 in10.0 miWest (280°)9.2 mphOvercast
4:52 PM48.9 °F42.1 °F77 %29.66 in9.0 miWest (280°)8.1 mph0.00 inOvercast
5:52 PM46.9 °F43.0 °F86 %29.68 in8.0 miWest (270°)5.8 mph0.00 inRainLight Rain
6:30 PM46.4 °F42.8 °F87 %29.69 in7.0 miWest (270°)4.6 mph0.01 inRainLight Rain
6:52 PM46.9 °F43.0 °F86 %29.71 in7.0 miWest (270°)6.9 mph0.02 inRainLight Rain
7:52 PM46.9 °F43.0 °F86 %29.72 in5.0 miWest (270°)5.8 mph0.03 inRainLight Rain
8:09 PM46.4 °F44.6 °F93 %29.72 in6.0 miWest (270°)5.8 mph0.00 inRainLight Rain
8:41 PM46.4 °F42.8 °F87 %29.72 in8.0 miWest (270°)5.8 mph0.01 inRainLight Rain
8:52 PM46.9 °F44.1 °F90 %29.73 in7.0 miWest (270°)4.6 mph0.01 inOvercast
9:52 PM46.9 °F43.0 °F86 %29.74 in7.0 miWest (260°)4.6 mphOvercast
10:52 PM46.9 °F44.1 °F90 %29.75 in7.0 miWSW (250°)3.5 mphOvercast
11:52 PM46.9 °F43.0 °F86 %29.75 in6.0 miWest (260°)3.5 mphMostly Cloudy
Hourly data recorded from KPWK, located miles away from Chicago, Illinois







STORIES FROM OUR PARTNERS